Date String (YYYY-MM-DD hh:mm:ss) UTC,Instrument flags,Ambient pressure (hPa),Sample flow (lpm),Bypass flow (lpm),Sample temperature (°C),Ambient temperature (°C),ASC tube jacket temperature (°C),LED temperature (°C),Box temperature (°C),Sample RH (%),Span deviation,Mass concentration (μg/m³),Mass concentration (μg/m³),Mass concentration (μg/m³)
DateTimeUTC,F1_M11,P_M11,Q1_M11,Q2_M11,T1_M11,T2_M11,T3_M11,T4_M11,T5_M11,U1_M11,ZSPAN_M11,X2_M11,X0_M11,X1_M11
2022-01-21 09:00:00,,0822.1,5.01,0.00,22.4,21.6,00.0,31.4,24.1,12.5,-002.0,0014.22,0019.03,0013.90
2022-01-21 09:01:00,,0822.2,5.00,0.00,22.4,21.6,00.0,31.4,24.1,12.5,-002.0,0014.33,0019.17,0014.01
2022-01-21 09:02:00,,0822.3,5.00,0.00,22.4,21.6,00.0,31.4,24.1,12.5,-002.0,0014.40,0019.28,0014.10
2022-01-21 09:03:00,,0822.3,5.00,0.00,22.4,21.6,00.0,31.4,24.1,12.5,-001.9,0014.51,0019.46,0014.19
2022-01-21 09:04:00,,0822.3,5.01,0.00,22.4,22.2,00.0,31.4,24.2,12.5,-002.0,0014.45,0019.34,0014.15
2022-01-21 09:05:00,,0822.3,4.99,0.00,22.5,23.0,00.0,31.4,24.4,12.4,-002.1,0014.52,0019.51,0014.18
2022-01-21 09:06:00,,0822.2,5.00,0.00,22.7,23.3,00.0,31.4,24.6,12.3,-002.1,0014.68,0019.92,0014.32
2022-01-21 09:07:00,,0822.1,5.01,0.00,22.7,23.1,00.0,31.5,24.6,12.3,-002.0,0014.67,0019.91,0014.32
2022-01-21 09:08:00,,0822.1,5.00,0.00,22.7,22.9,00.0,31.5,24.6,12.3,-002.0,0014.64,0019.85,0014.30
2022-01-21 09:09:00,,0822.2,4.99,0.00,22.7,22.6,00.0,31.5,24.5,12.3,-002.0,0014.60,0019.74,0014.27
2022-01-21 09:10:00,,0822.3,5.01,0.00,22.6,22.3,00.0,31.5,24.4,12.3,-002.0,0014.57,0019.71,0014.23
2022-01-21 09:11:00,,0822.4,4.99,0.00,22.6,22.1,00.0,31.5,24.3,12.3,-001.9,0014.55,0019.67,0014.21
2022-01-21 09:12:00,,0822.3,5.01,0.00,22.6,22.1,00.0,31.5,24.3,12.4,-002.0,0014.57,0019.75,0014.23
2022-01-21 09:13:00,,0822.3,4.98,0.00,22.5,22.0,00.0,31.5,24.3,12.3,-002.0,0014.55,0019.73,0014.21
2022-01-21 09:14:00,,0822.4,5.01,0.00,22.5,22.0,00.0,31.5,24.3,12.3,-002.0,0014.49,0019.62,0014.17
2022-01-21 09:15:00,,0822.5,5.00,0.00,22.5,21.9,00.0,31.5,24.2,12.3,-002.0,0014.48,0019.64,0014.16
2022-01-21 09:16:00,,0822.5,4.99,0.00,22.5,21.8,00.0,31.5,24.2,12.3,-001.8,0014.49,0019.62,0014.18
2022-01-21 09:17:00,,0822.4,5.00,0.00,22.5,21.8,00.0,31.5,24.2,12.4,-001.8,0014.39,0019.40,0014.09
2022-01-21 09:18:00,,0822.4,5.01,0.00,22.5,21.8,00.0,31.4,24.2,12.4,-001.8,0014.35,0019.43,0014.03
2022-01-21 09:19:00,,0822.5,4.99,0.00,22.4,21.7,00.0,31.4,24.1,12.4,-001.8,0014.38,0019.56,0014.02
2022-01-21 09:20:00,,0822.5,5.01,0.00,22.4,21.7,00.0,31.4,24.0,12.4,-001.8,0014.41,0019.66,0014.03
2022-01-21 09:21:00,,0822.5,5.00,0.00,22.3,21.6,00.0,31.4,24.0,12.5,-001.7,0014.47,0019.80,0014.10
2022-01-21 09:22:00,,0822.5,5.00,0.00,22.3,21.6,00.0,31.4,24.0,12.5,-001.6,0014.63,0020.25,0014.18
2022-01-21 09:23:00,,0822.4,5.01,0.00,22.3,21.6,00.0,31.4,24.0,12.5,-001.4,0014.76,0020.70,0014.23
2022-01-21 09:24:00,,0822.4,5.01,0.00,22.3,21.6,00.0,31.4,24.0,12.5,-001.4,0014.97,0021.19,0014.36
2022-01-21 09:25:00,,0822.4,4.98,0.00,22.3,21.6,00.0,31.4,24.0,12.5,-001.4,0015.13,0021.61,0014.48
2022-01-21 09:26:00,,0822.5,5.02,0.00,22.3,21.5,00.0,31.3,24.0,12.5,-001.4,0015.35,0022.45,0014.68
2022-01-21 09:27:00,,0822.5,5.01,0.00,22.3,21.5,00.0,31.3,24.0,12.5,-001.5,0015.60,0023.21,0014.89
2022-01-21 09:28:00,,0822.5,4.99,0.00,22.3,21.5,00.0,31.3,24.0,12.5,-001.7,0015.89,0023.76,0015.10
2022-01-21 09:29:00,,0822.4,5.00,0.00,22.3,21.5,00.0,31.3,24.0,12.5,-001.7,0016.04,0024.20,0015.22
2022-01-21 09:30:00,,0822.4,5.01,0.00,22.3,21.5,00.0,31.3,24.0,12.5,-001.7,0016.05,0024.57,0015.19
2022-01-21 09:31:00,,0822.4,5.00,0.00,22.3,22.0,00.0,31.3,24.1,12.4,-001.5,0015.98,0024.57,0015.08
2022-01-21 09:32:00,,0822.4,4.99,0.00,22.4,22.8,00.0,31.3,24.3,12.4,-001.4,0015.87,0024.53,0014.94
2022-01-21 09:33:00,,0822.4,5.00,0.00,22.6,23.2,00.0,31.4,24.5,12.3,-001.4,0015.67,0024.48,0014.78
2022-01-21 09:34:00,,0822.4,5.00,0.00,22.6,23.1,00.0,31.4,24.6,12.2,-001.5,0015.41,0024.05,0014.57
2022-01-21 09:35:00,,0822.4,5.02,0.00,22.6,22.9,00.0,31.4,24.6,12.2,-001.4,0015.12,0023.79,0014.29
2022-01-21 09:36:00,,0822.3,4.99,0.00,22.6,22.7,00.0,31.4,24.5,12.2,-001.3,0014.85,0023.76,0014.02
2022-01-21 09:37:00,,0822.3,5.01,0.00,22.6,22.5,00.0,31.4,24.5,12.2,-001.3,0014.53,0023.60,0013.70
2022-01-21 09:38:00,,0822.3,4.99,0.00,22.6,22.4,00.0,31.5,24.4,12.2,-001.2,0014.36,0024.23,0013.51
2022-01-21 09:39:00,,0822.3,5.01,0.00,22.6,22.3,00.0,31.5,24.4,12.2,-001.0,0014.20,0025.20,0013.34
2022-01-21 09:40:00,,0822.3,5.00,0.00,22.6,22.2,00.0,31.5,24.4,12.2,-001.0,0014.14,0025.32,0013.28
2022-01-21 09:41:00,,0822.3,4.98,0.00,22.6,22.1,00.0,31.5,24.4,12.2,-000.9,0014.13,0025.44,0013.27
2022-01-21 09:42:00,,0822.3,5.01,0.00,22.6,22.0,00.0,31.5,24.3,12.2,-001.0,0014.09,0025.70,0013.25
2022-01-21 09:43:00,,0822.4,5.00,0.00,22.6,22.0,00.0,31.5,24.3,12.3,-001.1,0014.14,0026.23,0013.32
2022-01-21 09:44:00,,0822.4,5.00,0.00,22.5,21.9,00.0,31.5,24.3,12.3,-001.3,0014.25,0026.62,0013.43
2022-01-21 09:45:00,,0822.3,5.01,0.00,22.5,21.9,00.0,31.5,24.3,12.3,-001.2,0014.33,0026.61,0013.49
2022-01-21 09:46:00,,0822.3,4.98,0.00,22.5,21.8,00.0,31.5,24.2,12.3,-001.3,0014.39,0026.61,0013.56
2022-01-21 09:47:00,,0822.2,5.01,0.00,22.5,21.8,00.0,31.4,24.2,12.3,-001.4,0014.45,0026.33,0013.65
2022-01-21 09:48:00,,0822.2,5.00,0.00,22.5,21.8,00.0,31.4,24.2,12.3,-001.4,0014.55,0025.81,0013.76
2022-01-21 09:49:00,,0822.3,4.99,0.00,22.4,21.7,00.0,31.4,24.2,12.3,-001.3,0014.39,0024.36,0013.67
2022-01-21 09:50:00,,0822.3,5.00,0.00,22.4,21.7,00.0,31.4,24.2,12.3,-001.3,0014.24,0022.92,0013.58
2022-01-21 09:51:00,,0822.4,4.99,0.00,22.4,21.7,00.0,31.4,24.2,12.3,-001.4,0014.12,0022.64,0013.50
2022-01-21 09:52:00,,0822.3,5.00,0.00,22.4,21.7,00.0,31.4,24.1,12.3,-001.6,0014.07,0023.25,0013.49
2022-01-21 09:53:00,,0822.3,4.99,0.00,22.4,21.7,00.0,31.4,24.1,12.3,-001.6,0014.09,0023.12,0013.50
2022-01-21 09:54:00,,0822.3,5.01,0.00,22.4,21.6,00.0,31.4,24.1,12.3,-001.5,0014.03,0022.47,0013.44
2022-01-21 09:55:00,,0822.3,5.01,0.00,22.4,21.6,00.0,31.4,24.1,12.4,-001.4,0013.92,0021.73,0013.36
2022-01-21 09:56:00,,0822.3,5.00,0.00,22.4,21.6,00.0,31.4,24.1,12.4,-001.4,0013.84,0021.65,0013.28
2022-01-21 09:57:00,,0822.2,4.99,0.00,22.4,21.6,00.0,31.4,24.1,12.4,-001.4,0013.74,0021.33,0013.21
2022-01-21 09:58:00,,0822.1,5.00,0.00,22.3,21.6,00.0,31.4,24.1,12.4,-001.2,0013.66,0021.19,0013.13
2022-01-21 09:59:00,,0822.1,5.02,0.00,22.3,21.6,00.0,31.3,24.1,12.4,-001.3,0013.61,0020.98,0013.08
